2022/12/26 00:00:00,34.7,-1.4
2022/12/26 00:10:00,34.5,-1.1
2022/12/26 00:20:00,34.5,-1.2
2022/12/26 00:30:00,34.5,-1.1
2022/12/26 00:40:00,34.4,-1.4
2022/12/26 00:50:00,34.4,-1.0
2022/12/26 01:00:00,34.3,-0.7
2022/12/26 01:10:00,34.3,-1.4
2022/12/26 01:20:00,34.2,-1.4
2022/12/26 01:30:00,34.1,-1.2
2022/12/26 01:40:00,34.1,-1.1
2022/12/26 01:50:00,34.1,-1.2
2022/12/26 02:00:00,34.1,-1.2
2022/12/26 02:10:00,34.1,-1.1
2022/12/26 02:20:00,34.1,-1.0
2022/12/26 02:30:00,34.2,-1.0
2022/12/26 02:40:00,34.1,-1.0
2022/12/26 02:50:00,34.0,-1.4
2022/12/26 03:00:00,33.9,-1.2
2022/12/26 03:10:00,33.9,-1.2
2022/12/26 03:20:00,33.8,-1.7
2022/12/26 03:30:00,33.7,-1.6
2022/12/26 03:40:00,33.6,-1.8
2022/12/26 03:50:00,33.6,-1.4
2022/12/26 04:00:00,33.5,-1.2
2022/12/26 04:10:00,33.4,-1.0
2022/12/26 04:20:00,33.4,-1.0
2022/12/26 04:30:00,33.4,-0.9
2022/12/26 04:40:00,33.4,-1.2
2022/12/26 04:50:00,33.4,-1.3
2022/12/26 05:00:00,33.4,-1.4
2022/12/26 05:10:00,33.4,-1.8
2022/12/26 05:20:00,33.4,-1.2
2022/12/26 05:30:00,33.3,-1.0
2022/12/26 05:40:00,33.3,-1.1
2022/12/26 05:50:00,33.3,-1.2
2022/12/26 06:00:00,33.6,-1.2
2022/12/26 06:10:00,34.1,-1.2
2022/12/26 06:20:00,34.6,-1.2
2022/12/26 06:30:00,35.4,-1.5
2022/12/26 06:40:00,35.8,-1.0
2022/12/26 06:50:00,36.0,-1.1
2022/12/26 07:00:00,36.3,-1.4
2022/12/26 07:10:00,36.3,-1.2
2022/12/26 07:20:00,36.3,-1.4
2022/12/26 07:30:00,36.3,-0.9
2022/12/26 07:40:00,36.3,-1.2
2022/12/26 07:50:00,36.2,-0.8
2022/12/26 08:00:00,36.2,-0.7
2022/12/26 08:10:00,36.3,-0.7
2022/12/26 08:20:00,36.3,-0.1
2022/12/26 08:30:00,36.3,-0.4
2022/12/26 08:40:00,36.3, 0.0
2022/12/26 08:50:00,36.3, 0.0
2022/12/26 09:00:00,36.3,-0.3
2022/12/26 09:10:00,36.6,-0.1
2022/12/26 09:20:00,37.1, 0.0
2022/12/26 09:30:00,37.0, 0.0
2022/12/26 09:40:00,37.0, 0.0
2022/12/26 09:50:00,37.0, 1.0
2022/12/26 10:00:00,36.9, 0.3
2022/12/26 10:10:00,37.0, 0.7
2022/12/26 10:20:00,36.9, 0.3
2022/12/26 10:30:00,36.9, 0.2
2022/12/26 10:40:00,37.0,-0.4
2022/12/26 10:50:00,37.0, 0.0
2022/12/26 11:00:00,37.2,-0.3
2022/12/26 11:10:00,37.1, 0.2
2022/12/26 11:20:00,37.1, 0.2
2022/12/26 11:30:00,37.0, 0.2
2022/12/26 11:40:00,36.9, 0.2
2022/12/26 11:50:00,36.8, 0.4
2022/12/26 12:00:00,36.8,-0.1
2022/12/26 12:10:00,36.7, 0.5
2022/12/26 12:20:00,36.7, 0.5
2022/12/26 12:30:00,36.5, 0.4
2022/12/26 12:40:00,36.4, 0.2
2022/12/26 12:50:00,36.4, 0.3
2022/12/26 13:00:00,36.4, 0.3
2022/12/26 13:10:00,36.4, 0.7
2022/12/26 13:20:00,36.6, 0.4
2022/12/26 13:30:00,36.7, 0.2
2022/12/26 13:40:00,36.9, 0.3
2022/12/26 13:50:00,37.1, 0.4
2022/12/26 14:00:00,37.0, 0.8
2022/12/26 14:10:00,37.1, 0.4
2022/12/26 14:20:00,37.3, 0.4
2022/12/26 14:30:00,37.8, 0.4
2022/12/26 14:40:00,37.8, 0.3
2022/12/26 14:50:00,37.8, 0.1
2022/12/26 15:00:00,38.0, 0.2
2022/12/26 15:10:00,38.2, 0.1
2022/12/26 15:20:00,38.1,-0.2
2022/12/26 15:30:00,38.0, 0.0
2022/12/26 15:40:00,38.2, 0.1
2022/12/26 15:50:00,38.3,-0.3
2022/12/26 16:00:00,38.3,-0.1
2022/12/26 16:10:00,38.2,-0.1
2022/12/26 16:20:00,38.2,-0.6
2022/12/26 16:30:00,38.1,-0.3
2022/12/26 16:40:00,38.1, 0.0
2022/12/26 16:50:00,38.1,-0.3
2022/12/26 17:00:00,38.3,-0.7
2022/12/26 17:10:00,38.4,-0.2
2022/12/26 17:20:00,38.5,-0.6
2022/12/26 17:30:00,38.8,-0.4
2022/12/26 17:40:00,38.9,-0.4
2022/12/26 17:50:00,38.8,-0.7
2022/12/26 18:00:00,38.8,-0.4
2022/12/26 18:10:00,38.7,-0.5
2022/12/26 18:20:00,38.7,-0.6
2022/12/26 18:30:00,38.8,-0.2
2022/12/26 18:40:00,38.8,-0.4
2022/12/26 18:50:00,38.7,-0.9
2022/12/26 19:00:00,38.8,-0.7
2022/12/26 19:10:00,38.9,-0.3
2022/12/26 19:20:00,38.8,-0.4
2022/12/26 19:30:00,38.8,-0.2
2022/12/26 19:40:00,38.9,-0.1
2022/12/26 19:50:00,38.9,-0.3
2022/12/26 20:00:00,38.8,-0.4
2022/12/26 20:10:00,38.6,-0.5
2022/12/26 20:20:00,38.6,-0.7
2022/12/26 20:30:00,38.6,-0.5
2022/12/26 20:40:00,38.5,-0.4
2022/12/26 20:50:00,38.5,-0.5
2022/12/26 21:00:00,38.6,-0.5
2022/12/26 21:10:00,38.6,-0.1
2022/12/26 21:20:00,38.6,-0.4
2022/12/26 21:30:00,38.6,-0.1
2022/12/26 21:40:00,38.6,-0.4
2022/12/26 21:50:00,38.7,-0.4
2022/12/26 22:00:00,38.7,-0.6
2022/12/26 22:10:00,38.9,-1.0
2022/12/26 22:20:00,38.9,-0.4
2022/12/26 22:30:00,39.0,-0.8
2022/12/26 22:40:00,38.8,-0.9
2022/12/26 22:50:00,38.7,-0.5
2022/12/26 23:00:00,38.7,-0.4
2022/12/26 23:10:00,38.9,-0.5
2022/12/26 23:20:00,38.9,-0.4
2022/12/26 23:30:00,39.0,-0.6
2022/12/26 23:40:00,39.1,-0.5
2022/12/26 23:50:00,39.0,-0.8
